Regional Weather Roundup
Issued by NWS

Home | Current Version | Previous Version | Graphics & Text | Print | Product List | Glossary On
Versions: 1 2 3 4 5 6 7 8 9 10 11 12 13 14 15 16 17 18 19 20 21 22 23 24 25 26 27 28 29 30 31 32 33 34 35 36 37 38 39 40 41 42 43 44 45 46 47 48 49 50
000
ASUS43 KLOT 231058
RWRIL

ILLINOIS REGIONAL WEATHER ROUNDUP
NATIONAL WEATHER SERVICE CHICAGO/ROMEOVILLE IL
600 AM CDT THU OCT 23 2014

NOTE: "FAIR" INDICATES FEW OR NO CLOUDS BELOW 12,000 FEET WITH NO
SIGNIFICANT WEATHER AND/OR OBSTRUCTIONS TO VISIBILITY.

* THESE STATIONS ARE NOT UNDER NWS QUALITY CONTROL. THEY ALSO MAY NOT
  REPORT WEATHER SUCH AS PRECIPITATION OR FOG.

ILZ001-002-007-009-015-016-024-231200-
NORTHWEST ILLINOIS

CITY           SKY/WX    TMP DP  RH WIND       PRES   REMARKS
MOLINE         CLEAR     39  34  82 E5        30.16S
$$

ILZ003-004-008-010-011-017-018-231200-
NORTH CENTRAL ILLINOIS

CITY           SKY/WX    TMP DP  RH WIND       PRES   REMARKS
ROCKFORD       NOT AVBL
$$

ILZ005-006-012>014-019>023-231200-
NORTHEAST ILLINOIS

CITY           SKY/WX    TMP DP  RH WIND       PRES   REMARKS
CHICAGO-OHARE  CLEAR     36  35  96 S5        30.21S WCI  32
CHICAGO-MIDWAY NOT AVBL
AURORA         CLEAR     34  31  88 CALM      30.22S FOG
WAUKEGAN       NOT AVBL
DUPAGE AIRPORT CLEAR     36  34  92 S5        30.21S WCI  32
WHEELING       CLEAR     37  34  89 CALM      30.23S FOG
NORTHERLY ISL    N/A     44  39  82 S8          N/A
$$

LMZ740>746-231200-
SOUTHERN LAKE MICHIGAN

STATION/POSITION SKY/WX   TEMP    WIND        PRES    VSBY  WAVE
                          AIR SEA DIR/SP/G                  HT/PER
                          (F)     (DEG/KT/KT) (MB)    (MI)  (FT/S)
SOUTHERN BUOY              50 54  180/ 12/ 14 1023.7F         2/ 4
WAUKEGAN HARBOR            45     200/  8/ 11   N/A
HARRISON CRIB              45     180/ 16/ 18   N/A
BURNHAM HARBOR             44     180/  5/  9   N/A
CALUMET HARBOR             42     170/  8/ 11 1022.3F
MICHIGAN CITY              41     130/ 12/ 14   N/A
$$

ILZ025>027-034>036-040-047-049-050-058-095>099-231200-
WEST-CENTRAL ILLINOIS

CITY           SKY/WX    TMP DP  RH WIND       PRES   REMARKS
$$

ILZ028>032-037-038-041>044-048-051>054-059>061-231200-
CENTRAL ILLINOIS

CITY           SKY/WX    TMP DP  RH WIND       PRES   REMARKS
PEORIA         NOT AVBL
SPRINGFIELD    PTCLDY    39  35  86 E5        30.21S
TAYLORVILLE    NOT AVBL
$$

ILZ033-039-045-046-055>057-062-063-231200-
EAST-CENTRAL ILLINOIS

CITY           SKY/WX    TMP DP  RH WIND       PRES   REMARKS
CHAMPAIGN      CLEAR     34  33  96 E6        30.23S WCI  29
$$

ILZ079-100>102-231200-
SOUTHWEST ILLINOIS

CITY           SKY/WX    TMP DP  RH WIND       PRES   REMARKS
BELLEVILLE     CLEAR     37  37 100 CALM      30.21R FOG
CAHOKIA*       PTCLDY    37  36  96 CALM      30.21S FOG
$$

ILZ064>066-069>071-074>076-080>082-084>086-088>090-092>094-231200-
SOUTH-CENTRAL ILLINOIS

CITY           SKY/WX    TMP DP  RH WIND       PRES   REMARKS
CARBONDALE     FOG      N/A N/A N/A CALM      30.22S VSB 1/4
$$

ILZ067-068-072-073-078-083-087-091-231200-
SOUTHEAST ILLINOIS

CITY           SKY/WX    TMP DP  RH WIND       PRES   REMARKS
$$

ABBREVIATIONS USED IN REMARKS
   TC - TEMPERATURE IN CELSIUS
  WCI - WIND CHILL INDEX
   HX - HEAT INDEX
  VSB - VISIBILITY
$$




USA.gov is the U.S. government's official web portal to all federal, state and local government web resources and services.